Location: Unspecified
(0.0000°N, 0.0000°E)
Time: 02:43:25
(UTC+00:00)

Freja - Visible Passes

Search period start: 16 May 2026 00:00
Search period end: 26 May 2026 00:00
Orbit: 587 x 1685 km, 63.0° (Epoch: 14 May)

Date Brightness Start Highest point End Pass type
(mag) Time Alt. Az. Time Alt. Az. Time Alt. Az.
17 May 7.7 05:01:40 10° S 05:08:52 47° ESE 05:17:46 10° NE visible
17 May 8.0 18:42:21 10° WNW 18:45:53 17° WSW 18:49:01 10° SSW visible
18 May 8.3 04:26:17 10° S 04:32:49 31° ESE 04:40:38 10° NE visible
19 May 8.6 03:51:26 10° SSE 03:56:47 20° ESE 04:02:56 10° ENE visible
20 May 8.9 03:17:53 10° SE 03:20:45 12° ESE 03:23:47 10° E visible
20 May 6.8 05:03:59 10° SSW 05:11:40 83° WNW 05:21:21 10° NNE visible
21 May 7.0 04:28:19 12° SSW 04:35:30 70° ESE 04:45:00 10° NNE visible
22 May 7.5 03:54:06 20° S 03:59:24 48° ESE 04:08:18 10° NE visible
23 May 8.0 03:19:53 23° SSE 03:23:21 32° ESE 03:31:13 10° NE visible
23 May 7.3 05:08:01 12° SW 05:14:51 39° WNW 05:23:40 10° N visible
24 May 8.3 02:45:39 20° SE 02:47:19 21° ESE 02:53:32 10° ENE visible
24 May 6.9 04:33:47 26° SW 04:38:30 57° WNW 04:47:55 10° N visible
25 May 8.8 02:11:23 12° ESE 02:11:23 12° ESE 02:14:31 10° E visible
25 May 6.6 03:59:31 48° SSW 04:02:13 81° WNW 04:11:52 10° NNE visible
